Wind_Speed
37 33 32 31 30 29 28 28 27 25 24 25 27 25 26 22 21 29 29 24 22 25
37 37 35 35 33 31 30 28 28 27 27 25 20 20 22 21 22 23 22 18 28 25
39 36 34 34 32 31 32 28 25 24 23 20 16 19 22 23 22 20 22 22 19 21
37 37 36 35 36 32 30 25 21 19 19 17 16 17 16 19 19 19 17 20 24 23
37 37 37 38 40 35 27 13 14 13 15 13 13 16 18 18 19 18 18 20 20 21
39 38 38 39 39 36 21 5 5 7 10 10 12 12 13 14 18 18 17 17 18 18
40 39 39 39 39 36 27 6 2 3 7 9 11 10 11 11 12 10 12 16 18 16
40 39 40 42 41 39 34 11 7 4 3 7 8 9 11 13 12 12 15 18 14 16
38 39 40 41 43 44 42 25 16 11 5 3 6 8 11 12 16 16 14 14 12 12
37 37 40 40 41 41 39 34 33 29 12 4 6 9 11 11 17 15 15 14 12 13
36 36 34 38 38 38 38 37 36 34 32 27 30 3 9 10 7 19 17 14 11 10
36 36 35 30 33 35 35 37 40 38 35 35 36 32 30 30 29 17 13 4 8 2
36 34 35 36 30 26 31 35 37 38 39 40 40 43 41 40 35 35 35 41 37 35
38 31 34 34 33 33 28 29 29 36 41 37 42 45 44 40 36 32 35 33 33 35
Wind_Direction
315 308 300 292 283 280 276 268 268 267 261 255 252 251 247 256 261 250 254 258 243 238
319 315 307 301 291 279 272 269 260 258 262 254 255 249 250 250 248 256 262 272 249 251
323 324 326 321 303 289 275 265 262 254 257 256 249 248 245 244 247 251 250 260 269 270
338 339 338 334 326 315 279 258 253 248 249 252 244 240 245 245 240 242 250 251 246 260
347 347 346 345 345 347 359 240 251 244 240 241 244 241 248 240 242 248 239 245 248 247
353 353 353 352 351 354 9 333 252 236 229 233 239 243 249 250 239 245 242 245 249 247
357 358 359 357 356 356 355 355 317 244 228 232 236 244 249 249 244 247 254 254 253 248
0 3 4 3 2 4 12 52 43 34 233 246 240 245 239 234 226 250 248 249 259 245
5 8 8 10 13 17 23 40 40 38 31 289 260 252 242 228 228 232 234 234 247 238
6 10 13 14 17 20 23 24 33 28 18 353 304 276 278 268 213 221 239 242 242 244
7 11 13 17 17 20 23 27 26 33 36 35 26 300 269 284 269 217 226 232 242 248
7 12 13 17 25 23 25 29 30 29 39 43 44 48 50 59 59 68 56 323 262 0
10 15 15 11 20 32 33 35 34 33 39 46 51 53 56 58 61 67 65 63 66 72
17 18 20 18 18 24 35 36 37 42 39 46 52 55 58 58 58 64 71 70 73 79
Height
735 726 719 712 705 701 697 694 694 693 694 696 697 700 703 705 707 708 710 711 712 714
729 719 711 703 696 690 687 684 683 685 687 689 691 694 697 699 701 703 704 705 707 709
725 715 706 697 687 680 675 674 676 678 680 682 684 688 691 693 696 698 701 703 703 706
723 713 704 693 681 671 662 664 668 671 675 677 680 683 685 688 691 693 695 697 700 701
723 713 703 692 680 669 656 660 665 668 671 673 676 679 682 684 687 689 691 694 695 696
726 715 705 695 683 673 667 664 665 667 669 673 674 677 680 682 684 686 687 689 691 692
729 720 710 699 688 677 669 666 667 669 671 672 674 675 676 679 680 681 684 686 687 688
735 726 715 703 692 681 669 668 670 671 672 673 675 675 676 677 678 680 681 682 683 684
742 732 721 712 702 690 682 679 677 675 675 675 674 673 673 674 675 675 676 678 679 680
748 739 730 722 713 704 696 689 684 680 675 675 674 672 671 670 670 671 674 674 674 675
754 746 739 732 724 716 708 700 694 688 682 679 673 669 668 667 667 668 670 670 672 674
761 754 746 739 735 728 721 713 705 698 693 688 683 677 671 667 666 669 670 670 671 671
769 762 754 747 742 739 732 727 720 712 705 701 695 689 684 680 680 678 678 678 681 680
777 770 764 757 749 745 740 736 730 725 719 712 710 705 701 697 693 692 690 693 696 698